IRNSS-1F

Last updated on Thu Oct 30 2025 00:02:50 GMT+0000 (Coordinated Universal Time)

1 41384U 16015A 25302.47749108 .00000172 00000+0 00000+0 0 9993 2 41384 4.7681 102.4198 0020653 177.5736 322.4470 1.00266528 35353
UTC large
Height (km)
Speed (km/s)
/
Latitude / Longitude
Inclination (degrees)
Orbital Period (minutes)
Azimuth
Elevation
Range (km)
Doppler Factor

Next 0 passes for location: London (51.5072 / 0.1276)

Sorry there are no passes over London.